This is the latest recevied weather packets stored in our database for station/object SR4DIG-13. If no packets are shown the sender has not sent any weather packets the latest 1 day(s).
| Time | Temp. | Humidity | Pressure | Rain* | Wind** | Luminosity | Snow |
|---|---|---|---|---|---|---|---|
| 1777974979 | 27.22° C | 38% | 1009.3 hPa | 0 mm | 0 m/s | - | - |
| 1777974678 | 27.22° C | 38% | 1009.3 hPa | 0 mm | 0 m/s | - | - |
| 1777974377 | 27.22° C | 39% | 1009.3 hPa | 0 mm | 0 m/s | - | - |
| 1777974077 | 26.67° C | 40% | 1009.4 hPa | 0 mm | 0 m/s | - | - |
| 1777973706 | 26.11° C | 41% | 1009.5 hPa | 0 mm | 0 m/s | - | - |
| 1777973405 | 26.11° C | 42% | 1009.5 hPa | 0 mm | 0 m/s | - | - |
| 1777973104 | 26.11° C | 41% | 1009.6 hPa | 0 mm | 0 m/s | - | - |
| 1777972803 | 25.56° C | 43% | 1009.6 hPa | 0 mm | 0 m/s | - | - |
| 1777972188 | 25.56° C | 44% | 1009.8 hPa | 0 mm | 0 m/s | - | - |
| 1777971887 | 25° C | 45% | 1009.8 hPa | 0 mm | 0 m/s | - | - |
| 1777971586 | 24.44° C | 46% | 1009.9 hPa | 0 mm | 0 m/s | - | - |
| 1777971285 | 23.89° C | 46% | 1009.6 hPa | 0 mm | 0 m/s | - | - |
| 1777970984 | 23.89° C | 47% | 1009.7 hPa | 0 mm | 0 m/s | - | - |
| 1777970684 | 23.89° C | 47% | 1009.8 hPa | 0 mm | 0 m/s | - | - |
| 1777970383 | 22.78° C | 49% | 1009.9 hPa | 0 mm | 0 m/s | - | - |
| 1777970082 | 22.22° C | 50% | 1009.9 hPa | 0 mm | 0 m/s | - | - |
| 1777969781 | 22.22° C | 50% | 1010 hPa | 0 mm | 0 m/s | - | - |
| 1777969480 | 22.22° C | 50% | 1010.1 hPa | 0 mm | 0 m/s | - | - |
| 1777969179 | 21.67° C | 51% | 1010.1 hPa | 0 mm | 0 m/s | - | - |
| 1777968878 | 21.11° C | 53% | 1010.1 hPa | 0 mm | 0 m/s | - | - |
| 1777968577 | 21.11° C | 53% | 1010.1 hPa | 0 mm | 0 m/s | - | - |
| 1777968276 | 21.11° C | 55% | 1010.2 hPa | 0 mm | 0 m/s | - | - |
| 1777967976 | 20° C | 54% | 1010.1 hPa | 0 mm | 0 m/s | - | - |
| 1777967383 | 20° C | 54% | 1010.2 hPa | 0 mm | 0 m/s | - | - |
| 1777967082 | 20.56° C | 54% | 1010.2 hPa | 0 mm | 0 m/s | - | - |
* Rain since midnight (hover to see other rain measurements)
** Current wind speed in m/s (hover to see current wind gust speed)